Location: ??????????
(48.5930°N, 37.4919°E)
Time: 21:18:30
(UTC+00:00)

Daily predictions for brighter satellites

Satellite Brightness Start Highest point End
(mag) Time Altitude Azimuth Time Altitude Azimuth Time Altitude Azimuth
Cosmos 1302 Rocket 4.2 16:48:07 10° NNW 16:53:27 81° WSW 16:58:43 10° SSE
Ariane Rocket 3.5 16:49:28 10° SE 16:54:13 43° ENE 16:58:59 10° N
Cosmos 1269 Rocket 4.0 16:50:05 10° SSW 16:55:22 75° ESE 17:00:41 10° NNE
Cosmos 1726 Rocket 3.7 16:51:13 10° S 16:55:27 51° E 16:59:41 10° NNE
BREEZE-M DEB (TANK) 3.2 16:53:29 10° W 16:55:34 25° SSW 16:58:02 10° SSE
Helios 1A Rocket 3.3 16:53:18 10° S 16:57:22 69° WSW 17:01:29 10° NNW
Cosmos 1825 3.2 16:54:50 10° N 16:58:10 28° ENE 17:01:28 10° SE
MetOp-A 4.2 16:54:26 10° SSE 16:59:48 83° ENE 17:05:11 10° NNW
ARGOS 4.5 16:55:45 10° S 17:00:52 44° W 17:06:00 10° NNW
Cosmos 2228 3.0 16:57:40 10° S 17:02:01 88° E 17:06:22 10° N
Okean-O 4.4 16:58:11 10° SSW 17:02:13 34° W 17:06:18 10° NNW
CENTAUR R/B 4.3 16:56:42 10° NW 17:04:20 44° WSW 17:12:32 10° S
SME Rocket 3.1 17:03:21 10° NNE 17:07:10 90° WNW 17:11:52 10° SSW
Cosmos 1408 2.6 17:03:48 10° N 17:07:20 57° ENE 17:10:50 10° SSE
SL-16 R/B 4.2 17:05:34 10° N 17:08:50 15° NNE 17:12:05 10° ENE
RESURS DK-1 3.2 17:05:39 10° SSE 17:09:10 28° ESE 17:12:42 10° NE
CSL-04 Rocket 4.5 17:05:41 10° S 17:10:50 52° W 17:16:01 10° NNW
Cosmos 1300 4.3 17:07:48 10° SSW 17:11:24 40° WNW 17:15:02 10° N
ATLAS 3B R/B 3.0 17:04:29 10° NW 17:11:26 66° NE 17:18:39 10° SE
CZ-2C R/B 3.5 17:07:44 10° N 17:12:48 55° WNW 17:17:54 10° SSW
Cosmos 1992 Rocket 4.0 17:10:39 10° NNW 17:15:52 70° ENE 17:21:04 10° SSE
DMSP B5D2-2 4.2 17:10:52 10° NNE 17:16:09 82° WNW 17:21:24 10° SSW
Cosmos 2360 Rocket 3.3 17:11:03 10° NW 17:16:27 46° WSW 17:21:47 10° S
Cosmos 2058 3.3 17:12:25 10° N 17:16:29 44° ENE 17:20:28 10° SSE
USA 215 3.6 17:11:26 10° E 17:17:51 62° NNE 17:24:18 10° NW
COSMOS 2428 2.8 17:14:06 10° NNW 17:19:52 72° ENE 17:25:35 10° SE
Cosmos 1092 Rocket 4.0 17:14:42 10° N 17:21:01 78° E 17:27:12 10° SSE
Cosmos 2058 Rocket 3.1 17:16:57 10° S 17:21:13 58° E 17:25:31 10° NNE
Cosmos 1953 Rocket 3.9 17:20:43 10° NNW 17:25:05 70° W 17:29:23 10° S
COSMOS 2487 2.3 17:25:48 10° SSW 17:29:13 89° ESE 17:32:38 10° NNE
NOSS 0 Rocket 4.2 17:23:40 10° NNW 17:29:47 56° NE 17:35:05 14° SE
Cosmos 2151 4.5 17:26:32 10° NNE 17:29:51 21° ENE 17:32:06 14° ESE
Cosmos 1818 3.9 17:26:42 10° S 17:31:44 41° ESE 17:36:50 10° NE
USA 186 3.4 17:28:50 10° SSW 17:31:50 35° W 17:34:45 10° NNW
Cosmos 1076 Rocket 4.2 17:29:22 10° N 17:33:26 37° ENE 17:36:31 16° SE
Cosmos 2219 Rocket 2.3 17:27:52 10° NNW 17:33:36 81° WSW 17:39:16 10° SSE
Cosmos 44 3.6 17:33:30 10° SSW 17:38:26 50° ESE 17:43:36 10° NE
Orbus 7S? 3.1 17:36:14 10° SW 17:38:58 58° SE 17:43:54 10° ENE
Resurs 01 Rocket 1.9 17:35:12 13° SE 17:39:01 54° ENE 17:43:23 10° N
ERS-2 4.0 17:36:33 10° N 17:39:52 34° WNW 17:43:10 10° SW
FALCON 9 DEB 3.6 17:37:16 10° SSW 17:40:28 37° SE 17:43:15 13° ENE
ATLAS 5 CENTAUR R/B 3.9 17:38:55 10° W 17:42:27 25° NNW 17:46:25 10° NNE
Exosat Rocket 3.9 17:36:35 10° NNW 17:43:27 88° ENE 17:48:04 14° SSE
Cosmos 1455 2.2 17:41:12 10° S 17:44:57 83° W 17:48:42 10° N
Resurs 1-3 3.8 17:46:18 10° S 17:50:40 73° WSW 17:55:04 10° NNW
IGS 5A 3.5 17:51:16 19° SSE 17:54:07 62° ENE 17:58:14 10° N
Cosmos 1633 3.5 17:51:36 10° N 17:54:52 31° ENE 17:56:00 25° ESE
Lacrosse 5 rocket 3.2 17:52:46 10° WNW 17:56:27 30° NNW 18:00:18 10° NE
Cosmos 1356 3.3 17:53:28 10° N 17:56:55 69° ENE 17:58:44 25° SSE
Cosmos 2279 Rocket 4.0 17:51:30 10° S 17:57:35 62° E 18:03:41 10° NNE
Cosmos 405 Rocket 2.7 17:55:33 10° N 17:59:36 80° E 18:02:12 21° SSE
IRIDIUM 106 4.4 17:55:42 13° SSE 18:00:17 58° E 18:05:25 10° N
Cosmos 2237 Rocket 2.4 17:54:43 10° NNW 18:00:19 58° ENE 18:03:45 23° SE
Cosmos 1140 Rocket 4.3 17:58:44 22° SE 18:00:38 28° E 18:04:57 10° NE
SPOT 5 4.1 18:01:04 20° E 18:02:54 25° ENE 18:06:46 10° N
Spot 2 Rocket 4.0 18:01:21 23° SE 18:04:05 42° ENE 18:08:52 10° N
Cosmos 2026 Rocket 4.3 17:58:27 10° NNW 18:04:28 65° W 18:10:29 10° S
NOSS 3-4 (A) 4.5 18:03:00 10° WSW 18:08:42 47° NW 18:14:56 10° NE
SL-8 R/B 4.2 18:04:03 10° W 18:08:43 49° SSW 18:11:00 27° SE
NOSS 3-4 (C) 4.5 18:03:06 10° WSW 18:08:48 48° NW 18:15:03 10° NE
CZ-2C R/B 3.8 18:05:17 10° NNE 18:09:38 52° E 18:12:23 21° S
Terra 3.2 18:11:13 20° E 18:12:50 24° ENE 18:16:37 10° N
MetOp-B 4.1 18:10:48 21° SSE 18:14:30 82° ENE 18:19:53 10° NNW
Cosmos 2227 Rocket 2.9 18:15:23 27° SE 18:17:00 31° ESE 18:21:57 10° NE
OBJECT-B 3.7 18:15:23 10° SW 18:17:24 16° W 18:19:27 10° NW
SPOT 1/Viking Rocket 3.5 18:17:35 26° SSE 18:20:34 73° ENE 18:25:48 10° N
BREEZE M DEB (TANK) 2.7 18:12:15 10° WSW 18:20:47 66° SSE 18:22:17 31° E
Cosmos 2266 Rocket 4.1 18:15:24 10° N 18:21:45 60° ENE 18:25:11 27° SSE
Cosmos 2251 Rocket 3.7 18:16:50 10° SSW 18:22:12 74° WNW 18:27:34 10° NNE
ATLAS 2AS CENTAUR R/B 3.5 18:14:28 10° WSW 18:22:19 63° NW 18:29:58 10° NE
Cosmos 2333 Rocket 3.8 18:18:20 10° NW 18:23:18 31° WSW 18:28:13 10° SSW
Cosmos 2297 Rocket 2.5 18:20:36 19° S 18:24:19 45° ESE 18:29:41 10° NE
Cosmos 2219 3.5 18:24:06 25° SSE 18:26:52 43° ESE 18:32:09 10° NE
SPOT 3 Rocket 3.9 18:23:06 17° S 18:27:08 61° WSW 18:32:17 10° NNW
Cosmos 389 Rocket 2.6 18:26:31 22° SSW 18:28:40 73° WNW 18:32:14 10° N
Meteor 2-21 Rocket 4.4 18:23:00 10° N 18:29:02 67° ENE 18:32:09 30° SSE
Cosmos 1190 Rocket 4.3 18:27:29 32° SSE 18:29:09 42° ESE 18:34:04 10° NE
BREEZE-M DEB (TANK) 2.9 18:26:23 10° SW 18:28:34 29° SSW 18:28:34 29° SSW
Timation 2 Rocket 4.4 18:25:28 20° S 18:29:38 43° ESE 18:35:34 10° NE
ARIANE 5 R/B 2.6 18:31:47 40° SE 18:33:16 69° ENE 18:37:38 10° N
Cosmos 1825 4.4 18:30:29 10° NW 18:33:32 23° W 18:36:33 10° SW
Cosmos 2344 3.7 18:29:41 10° SW 18:37:08 79° NW 18:45:16 10° NE
CZ-4C R/B 4.4 18:32:49 10° W 18:37:31 28° NNW 18:43:05 10° NE
Meteor 2-16 Rocket 4.4 18:36:23 10° N 18:42:33 72° ENE 18:45:18 35° SSE
RESURS DK-1 4.0 18:43:15 10° WSW 18:47:04 35° NW 18:50:56 10° NNE
BREEZE-M (TANK) 4.4 18:30:30 10° WNW 18:47:43 48° SW 18:50:04 31° S
USA 245 3.5 18:47:18 44° SSW 18:48:20 63° WSW 18:51:44 10° NNW
Cosmos 1655 Rocket 4.0 18:42:57 10° NNW 18:49:16 79° W 18:52:48 28° S
Genesis I 3.2 18:46:04 10° NW 18:50:04 72° NE 18:50:30 64° E
Cosmos-2242 2.9 18:49:03 50° S 18:50:07 80° E 18:54:27 10° NNE
SL-16 R/B 2.5 18:48:39 10° NNW 18:54:17 56° ENE 18:56:00 40° ESE
JB-3 4.3 18:51:04 10° NNE 18:55:12 66° ESE 18:55:17 65° ESE
Cosmos 1980 4.1 18:49:55 10° NW 18:55:29 56° WSW 18:57:54 32° S
USA 215 3.5 18:58:18 36° SSE 19:00:55 59° SW 19:07:23 10° WNW
ATLAS 3B R/B 3.9 18:55:34 10° NW 19:01:50 35° WSW 19:05:56 20° SSW
Meteor 2-3 Rocket 3.9 18:57:59 10° NNW 19:03:46 71° W 19:06:08 36° S
Cosmos 2151 3.9 19:03:14 10° NNW 19:07:20 43° W 19:08:41 32° SW
Meteor 1-27 4.2 19:05:32 41° S 19:07:38 79° E 19:13:29 10° NNE
Cosmos 2221 3.8 19:16:30 28° ENE 19:16:30 28° ENE 19:19:07 10° NNE
ERS-1 Rocket 3.0 19:14:41 53° S 19:15:48 73° WSW 19:20:52 10° NNW
Resurs 01 Rocket 4.0 19:12:45 10° SW 19:15:50 19° W 19:18:59 10° NW
FALCON 9 DEB 4.2 19:13:55 10° W 19:16:30 42° WNW 19:16:30 42° WNW
Cosmos 407 Rocket 3.8 19:13:31 17° SW 19:17:27 63° WNW 19:22:37 10° NNE
Okean 3 Rocket 3.6 19:17:04 10° NNW 19:21:37 75° W 19:21:57 70° SW
Cosmos 1943 4.5 19:18:53 10° NNW 19:23:46 29° NE 19:25:23 25° ENE
Cosmos 1766 Rocket 3.6 19:21:53 10° NNW 19:26:11 66° W 19:26:19 65° WSW
Meteor 2-15 4.3 19:25:37 56° SSE 19:26:45 70° E 19:32:48 10° NNE
Cosmos 1954 Rocket 3.8 19:32:07 71° SSW 19:32:41 87° ESE 19:37:53 10° NNE
Meteor 1-4 Rocket 3.9 19:36:04 36° N 19:36:04 36° N 19:38:21 10° N
COSMOS 2455 2.8 19:35:12 62° SE 19:35:21 62° ESE 19:41:18 10° NE
Meteor 2-2 Rocket 4.3 19:35:11 60° ESE 19:35:28 60° E 19:41:06 10° NNE
Lacrosse 5 rocket 3.2 19:32:48 10° NW 19:36:34 29° N 19:38:36 20° NE
SPOT 5 3.5 19:40:17 42° WSW 19:40:44 43° W 19:45:15 10° NNW
Cosmos 1140 Rocket 4.4 19:38:38 18° SW 19:42:13 45° WNW 19:47:09 10° NNE
BREEZE-M DEB (TANK) 3.5 19:34:40 10° WNW 19:42:11 62° WSW 19:42:11 62° WSW
Cosmos 1869 4.1 19:43:10 49° WNW 19:43:10 49° WNW 19:46:47 10° N
Cosmos 2237 Rocket 3.7 19:39:24 10° NW 19:43:59 26° WSW 19:45:35 23° SW
SeaSat 1 3.5 19:41:47 10° NE 19:44:52 33° ENE 19:44:52 33° ENE
BREEZE-M DEB (TANK) 4.2 19:43:44 10° W 19:48:07 59° SSW 19:48:44 56° SSE
Terra 2.3 19:50:06 49° WSW 19:50:17 50° W 19:54:56 10° NNW
Timation 1 Rocket 4.2 19:50:35 65° SSW 19:51:33 87° ESE 19:57:33 10° NNE
USA 229 DEB 4.2 19:48:58 10° NW 19:56:07 61° NE 19:58:43 41° ESE
USA 229 4.2 19:49:04 10° NW 19:56:13 61° NE 19:58:50 41° ESE
Cosmos 2082 3.6 19:57:25 75° SW 19:57:55 86° WNW 20:03:35 10° NNE
Cosmos 2263 Rocket 3.4 20:01:07 28° ENE 20:01:07 28° ENE 20:04:19 10° NE
Cosmos 2227 Rocket 3.0 19:57:04 20° WSW 20:00:51 49° NW 20:06:22 10° NNE
Cosmos 468 Rocket 4.1 19:58:44 10° NNW 20:03:36 64° W 20:03:36 64° W
Cosmos 1603 3.9 20:02:46 10° NNW 20:08:26 57° ENE 20:08:44 57° ENE
Cosmos 2297 Rocket 3.6 20:03:18 10° WSW 20:08:29 36° NW 20:13:43 10° NNE
Cosmos 2219 4.5 20:05:54 10° WSW 20:11:06 37° NW 20:16:20 10° NNE
Cosmos 1745 Rocket 3.9 20:05:03 10° N 20:11:25 78° E 20:11:52 73° ESE
Cosmos 1842 Rocket 4.2 20:12:26 53° NNW 20:12:26 53° NNW 20:16:07 10° N
Cosmos 841 Rocket 3.6 20:06:33 10° NNW 20:11:25 69° NNE 20:11:25 69° NNE
NOSS 3-1 (A) 4.1 20:06:43 10° NW 20:14:01 70° NE 20:16:39 46° ESE
Cosmos 1709 Rocket 4.3 20:11:04 10° N 20:17:10 52° ENE 20:17:26 52° E
BREEZE-M DEB (TANK) 4.1 20:06:38 10° WSW 20:16:57 59° SW 20:16:57 59° SW
Cosmos 1814 Rocket 4.3 20:14:13 10° NNW 20:19:11 60° NE 20:19:11 60° NE
Cosmos 1763 Rocket 4.2 20:18:41 10° NNW 20:22:57 44° W 20:22:57 44° W
S3M 3.9 20:24:14 78° SE 20:24:31 80° E 20:30:57 10° N
Cosmos 921 Rocket 4.0 20:21:49 10° NNW 20:25:01 46° N 20:25:01 46° N
Spot 4 4.3 20:32:39 61° NNW 20:32:39 61° NNW 20:36:41 10° NNW
SL-16 R/B 3.6 20:33:21 10° NW 20:37:53 27° W 20:37:53 27° W
NOSS 3-1 (C) 4.0 20:32:49 10° NW 20:40:14 69° SW 20:41:20 62° SSW
Cosmos 540 Rocket 4.1 20:38:11 10° NNW 20:42:15 49° WNW 20:42:15 49° WNW
Sich 1 4.3 20:41:14 10° N 20:43:56 38° NNW 20:43:56 38° NNW
Meteor 1-20 Rocket 4.3 20:41:43 10° NNW 20:47:13 79° N 20:47:13 79° N
Cosmos 1570 Rocket 4.4 20:44:31 10° NNW 20:48:56 60° NW 20:48:56 60° NW
Cosmos 2227 4.4 20:52:51 64° NE 20:52:51 64° NE 20:57:46 10° NNE
Cosmos 2221 4.4 20:53:18 25° WNW 20:53:18 25° WNW 20:56:26 10° NNW
Aureole 1 Rocket 3.9 20:55:37 61° NW 20:55:37 61° NW 21:00:07 10° NNE
Cosmos 44 Rocket 4.2 20:57:58 46° WNW 20:58:21 47° NW 21:03:25 10° NNE
Cosmos 1633 Rocket 4.4 20:54:50 10° N 20:57:34 37° N 20:57:34 37° N
Cosmos 1943 3.7 21:02:40 10° NW 21:07:11 51° WNW 21:07:11 51° WNW
ALOS 2 4.0 21:12:33 35° NW 21:12:33 35° NW 21:15:14 10° NNW
ATLAS 5 CENTAUR R/B 4.3 21:11:16 10° NNW 21:15:18 22° NNE 21:19:49 10° ENE
Lacrosse 5 rocket 3.2 21:12:00 10° NW 21:14:11 29° NW 21:14:11 29° NW
Thor Agena Rocket 4.1 21:14:07 10° NNE 21:18:01 51° NE 21:18:01 51° NE
COSMOS 2455 4.2 21:18:15 20° W 21:21:41 34° NW 21:27:08 10° NNE
SeaSat 1 3.7 21:19:31 10° NNE 21:23:56 34° NW 21:24:38 32° WNW
Cosmos 2315 Rocket 4.0 21:25:42 70° W 21:25:45 70° W 21:32:08 10° N
Cosmos 2184 Rocket 4.1 21:21:23 10° N 21:27:44 67° ENE 21:27:48 67° E
Iridium 4 Rocket 4.1 21:32:12 51° NNW 21:32:12 51° NNW 21:36:19 10° N
Meteor 1-14 Rocket 4.4 21:33:28 10° NNW 21:38:59 72° NW 21:38:59 72° NW
Cosmos 968 Rocket 4.0 21:44:13 57° NNE 21:44:13 57° NNE 21:48:26 10° NNE
Cosmos 2263 Rocket 2.9 21:42:46 43° WNW 21:43:08 43° NW 21:48:28 10° NNE
USA 281 3.0 21:46:12 84° SSE 21:46:28 89° WSW 21:53:07 10° NNW
USA 229 4.5 21:40:16 10° NW 21:46:15 41° WSW 21:46:15 41° WSW
NOSS 2-2 (D) 4.4 21:43:15 10° NW 21:48:27 73° NE 21:48:42 72° ENE
Cosmos 1844 Rocket 3.1 21:57:53 55° ENE 21:57:53 55° ENE 22:02:27 10° NNE
Cosmos 2074 Rocket 4.0 21:52:37 10° NNW 21:58:41 74° WNW 21:58:41 74° WNW
Cosmos 1486 Rocket 4.4 22:00:07 63° NNE 22:00:07 63° NNE 22:04:37 10° NNE
SL-4 R/B 3.9 22:06:10 31° ENE 22:06:10 31° ENE 22:08:46 10° ENE
Meteor 2-6 Rocket 4.3 22:06:01 69° N 22:06:01 69° N 22:10:45 10° N
Helios 1A 4.3 22:08:41 38° N 22:08:41 38° N 22:11:27 10° N
Cosmos 1610 Rocket 4.3 22:09:18 10° N 22:15:34 84° W 22:15:34 84° W
SJ 16-02 3.7 22:19:03 16° E 22:19:03 16° E 22:21:04 10° ENE
CZ-4C R/B 4.1 22:12:29 10° NW 22:18:42 37° NNE 22:25:58 10° E
Cosmos 1833 Rocket 4.0 22:13:59 10° NNW 22:19:11 36° NE 22:22:15 21° ESE
MOZ.5/SAFIR/RUBIN 5/SL-8 4.4 22:22:45 52° NE 22:22:45 52° NE 22:26:44 10° N
Nadezhda 1 Rocket 3.9 22:26:50 78° WSW 22:27:07 80° W 22:33:33 10° N
Resurs 1-4 Rocket 3.2 22:23:45 10° NNE 22:28:29 33° E 22:28:36 33° E
USA 308 4.4 22:31:52 33° NE 22:31:52 33° NE 22:34:17 10° ENE
SL-16 R/B 3.1 22:31:57 39° ESE 22:33:57 55° ENE 22:40:04 10° N
Cosmos 2278 Rocket 3.6 22:34:52 25° ESE 22:35:11 25° ESE 22:39:45 10° NE
CZ-2D R/B 3.1 22:30:59 10° NNE 22:36:06 38° E 22:36:28 38° ESE
Cosmos 2366 rocket 4.5 22:32:20 10° N 22:38:21 52° ENE 22:39:57 42° ESE
Meteor 1-27 Rocket 3.6 22:43:56 87° NW 22:43:56 87° NW 22:49:38 10° NNE
Meteor 1-11 Rocket 4.0 22:39:01 10° NNW 22:44:28 59° W 22:44:28 59° W
Cosmos 1238 Rocket 4.3 22:38:39 10° N 22:44:52 65° ENE 22:46:27 50° SE
Cosmos 1503 Rocket 4.2 22:46:18 60° NW 22:46:18 60° NW 22:51:07 10° NNE
COSMOS 2406 3.7 22:42:19 10° NNW 22:47:55 56° ENE 22:50:01 36° ESE
USA 234 4.0 22:49:49 10° ENE 22:55:43 35° SE 22:56:10 34° SE
Cosmos 1844 3.9 22:55:33 60° WNW 22:55:57 61° WNW 23:01:38 10° NNE
Cosmos 1975 4.3 22:53:05 10° N 22:56:44 31° ENE 22:56:48 31° ENE
Okean 1 4.4 23:01:19 43° ENE 23:01:19 43° ENE 23:04:30 10° NNE
ATLAS 5 CENTAUR R/B 2.6 22:55:27 10° NW 23:00:51 64° NE 23:07:14 10° SE
Cosmos 2228 Rocket 4.3 23:04:19 34° NW 23:04:19 34° NW 23:07:30 10° N
Cosmos 1354 Rocket 4.4 23:04:47 51° WNW 23:04:50 51° WNW 23:09:58 10° NNE
ADEOS II 3.4 23:00:47 10° NNE 23:05:28 32° E 23:06:49 28° ESE
UNK 3.7 23:11:24 79° N 23:11:24 79° N 23:15:48 10° NNW
NPP 3.9 23:06:25 10° NNE 23:11:47 60° ESE 23:12:32 54° SE
Cosmos 158 Rocket 4.0 23:13:14 10° NNW 23:18:11 69° ENE 23:19:07 55° ESE
Meteor 1-19 Rocket 4.4 23:17:46 52° SSE 23:18:53 64° E 23:24:21 10° NNE
ERBS 4.2 23:21:40 29° NE 23:21:40 29° NE 23:23:28 10° NE
Cosmos 1777 Rocket 3.9 23:19:53 74° W 23:20:08 76° WNW 23:25:22 10° NNE
Cosmos 2341 Rocket 4.2 23:15:28 10° NNW 23:21:36 53° W 23:22:11 51° WSW
Cosmos 1733 Rocket 3.5 23:17:17 10° NNW 23:20:51 55° NW 23:20:51 55° NW
Cosmos 1340 Rocket 4.0 23:18:13 10° NNW 23:20:48 36° NW 23:20:48 36° NW
USA 305 3.6 23:22:43 46° NNW 23:23:05 48° NNW 23:27:15 10° ENE
Cosmos 2181 Rocket 3.9 23:26:21 57° SW 23:27:40 74° W 23:33:57 10° N
Helios 1B rocket 2.7 23:25:48 10° N 23:29:27 64° NNW 23:29:27 64° NNW
IDEFIX/ARIANE 42P 4.2 23:27:54 10° NE 23:32:22 28° E 23:35:14 17° SE
Meteor 2-4 Rocket 4.3 23:35:57 34° SSE 23:38:22 57° E 23:44:09 10° NNE
SL-8 Rocket 4.2 23:32:40 10° NNW 23:38:43 50° W 23:39:38 46° WSW
Meteor 1-18 Rocket 4.2 23:37:58 51° S 23:39:32 85° E 23:45:21 10° NNE
Cosmos 1703 Rocket 4.4 23:39:25 37° SE 23:40:23 43° E 23:44:30 10° NNE
USA 306 3.9 23:39:45 35° NW 23:40:55 44° N 23:45:05 10° ENE
Cosmos 1844 Rocket 4.1 23:39:31 23° WNW 23:41:17 27° NW 23:46:00 10° NNE
BREEZE-M DEB (TANK) 4.5 23:44:03 32° S 23:44:03 32° S 23:52:31 10° SE
Cosmos 1862 Rocket 3.6 23:44:05 63° WNW 23:44:05 63° WNW 23:48:24 10° N
SL-4 R/B 2.4 23:41:44 31° WNW 23:44:02 79° NNE 23:48:52 10° ESE
IRS-1D 4.0 23:39:33 10° NNE 23:44:39 56° ESE 23:46:28 37° SSE
ARGOS Delta rocket 4.2 23:40:56 10° NNE 23:45:18 52° E 23:46:20 42° SE
Gblst 52 Del rocket 4.2 23:44:55 50° SW 23:46:35 82° SSE 23:52:16 10° ENE
NOSS 3-4 (A) 4.4 23:39:56 10° NW 23:46:40 59° NE 23:54:12 10° ESE
NOSS 3-4 (C) 4.4 23:40:02 10° NW 23:46:47 59° NE 23:54:19 10° ESE
FALCON 9 DEB 4.4 23:52:24 32° E 23:52:24 32° E 23:54:17 10° E
Cosmos 2082 Rocket 2.1 23:47:08 10° NNW 23:52:48 85° ENE 23:58:25 10° SSE
